Location: Sternwarte auf dem Internationalen Platz Vogelsang IP
(50.5721°N, 6.4398°E)
Time: 21:16:13
(UTC+01:00)

Transit 2A Rocket - Pass Details

Date: 11 December 2025
Orbit: 581 x 903 km, 66.7° (Epoch: 12 January)

Event Time Altitude Azimuth Distance (km) Brightness Sun altitude
Rises 13:09:04 0° 290° (WNW) 3,455 8.3 15.8°
Reaches altitude 10° 13:12:24 10° 309° (NW) 2,554 7.5 15.7°
Maximum altitude 13:16:22 18° 351° (N) 2,072 6.8 15.6°
Drops below altitude 10° 13:20:23 10° 32° (NNE) 2,592 7.2 15.5°
Sets 13:23:49 0° 51° (NE) 3,525 8.0 15.3°
